SCP
0 0 0 0 0 0 0 0 0 0 0 0 0 0 0 0 0 0 0 0 0 0 0 0 0 0 0 0 0 0 0 0 0 0 0 0 0 0 0 0 0 0 0 0 0
0 0 0 0 0 0 0 0 0 0 0 0 0 0 0 0 0 0 0 0 0 0 0 0 0 0 0 0 0 0 0 0 0 0 0 0 0 0 0 0 0 0 0 0 0
0 0 0 0 0 0 0 0 0 0 0 0 0 0 0 0 0 0 0 0 0 0 0 0 0 0 0 0 0 0 0 0 0 0 0 0 0 0 0 0 0 0 0 0 0
0 0 0 0 0 0 0 0 0 0 0 0 0 0 0 0 0 0 0 0 0 -0 0 0 0 0 0 0 0 0 0 0 0 0 0 0 0 0 0 0 0 0 0 0 0
0 0 0 0 0 0 0 0 0 0 0 0 0 0 0 0 0 0 0 0 0 0 0 0 0 0 0 0 0 0 0 0 0 0 0 0 0 0 0 0 0 0 0 0 0
0 0 0 0 0 0 0 0 0 0 0 0 0 0 0 0 0 0 0 0 0 0 0 0 0 0 0 0 0 0 0 0 0 0 0 0 0 0 0 0 0 0 0 0 0
0 0 0 0 0 0 0 0 0 0 0 0 0 0 0 0 0 0 0 0 0 0 0 0 0 0 0 0 0 0 0 0 0 0 0 0 0 0 0 0 0 0 0 0 0
0 0 0 0 0 0 0 0 0 0 0 0 0 -0 0 0 0 0 0 0 0 0 0 0 0 0 0 0 0 0 0 0 0 0 0 0 0 0 -0 0 0 0 0 0 0
0 0 0 0 0 0 0 0 -0 0 0 0 -0 0 0 0 0 0 0 0 0 0 0 0 0 0 0 0 0 0 0 0 0 0 0 0 0 0 -0 0 0 0 0 0 0
0 0 0 0 0 0 0 -0 0 0 0 0 0 -0 0 0 0 0 0 0 0 0 0 0 0 0 0 0 0 0 0 0 0 0 0 0 0 0 0 0 0 0 0 0 0
0 0 0 0 0 0 0 0 0 0 0 0 0 0 0 0 -0 0 0 0 0 0 0 0 0 0 0 0 0 0 0 0 0 0 0 0 0 0 0 0 0 0 0 0 0
0 0 0 0 0 0 -0 0 0 0 0 0 0 0 0 0 -0 0 0 0 0 0 0 0 0 0 0 0 0 0 0 0 0 0 0 0 0 0 0 0 0 0 0 0 0
0 0 0 0 -0 -0 0 0 -0 -0 -0 0 0 0 0 0 0 0 0 0 0 0 0 0 0 0 0 0 0 0 0 0 0 0 0 0 0 0 0 0 0 0 0 0 0
0 0 0 0 -0 0 0 0 -0 -0 -0 0 0 0 0 0 0 0 0 0 0 0 0 0 0 0 0 0 0 0 0 0 0 0 0 0 0 0 0 0 0 0 0 0 0
0 0 0 0 0 0 0 -0 -0 -0 0 0 0 0 0 0 0 0 0 0 0 0 0 0 0 0 0 0 0 0 0 0 0 0 0 0 0 0 0 0 0 0 0 0 0
0 0 0 -0 -0 0 -0 -0 -0 -0 0 0 0 0 0 0 0 0 0 0 0 0 0 0 0 0 0 0 0 0 0 0 0 0 0 0 0 0 0 0 0 0 0 0 0
0 0 0 0 0 -0 -0 -0 -0 0 0 0 0 0 0 0 0 0 0 0 0 0 0 0 0 0 0 0 0 0 0 0 0 0 0 0 0 0 0 0 0 0 0 0 0
0 -0 0 0 -0 -0 -0 -0 0 0 0 0 0 0 0 0 0 0 0 0 0 0 0 0 0 0 0 0 0 0 0 0 0 0 0 0 0 0 0 0 0 0 0 0 0
-0 -0 -0 -0 -0 -0 -0 0 0 0 0 0 0 0 0 0 0 0 0 0 0 0 0 0 0 0 0 0 0 0 0 0 0 0 0 0 0 0 0 0 0 0 0 0 0
-0 -0 0 -0 -0 -0 -0 0 0 0 0 0 0 0 0 0 0 0 0 0 0 0 0 0 0 0 0 -0 -0 0 0 0 0 0 0 0 0 0 0 0 0 0 0 0 0
-0 -0 -0 -0 -0 -0 0 0 0 0 0 0 0 0 0 0 0 0 0 0 0 0 0 0 0 0 0 0 0 -0 0 0 0 0 0 0 0 0 0 0 0 0 0 0 0
0 0 -0 -0 -0 -0 0 0 0 0 0 0 0 0 0 0 0 0 0 0 0 0 0 0 0 0 0 0 0 -0 0 0 0 0 0 0 0 0 0 0 0 0 0 0 0
0 0 0 -0 0 0 0 0 0 0 0 0 0 0 0 0 0 0 0 0 0 0 0 0 0 0 0 0 0 0 0 0 -0 -0 0 0 0 0 0 0 0 0 0 0 0
0 0 0 0 0 0 0 0 0 0 0 0 0 0 -0 0 -0 0 0 0 0 -0 -0 0 0 0 0 0 -0 0 0 0 0 -0 -0 0 0 0 0 -0 0 0 0 0 0
0 0 0 0 0 0 0 0 0 0 0 0 0 0 0 0 0 0 0 -0 -0 -0 -0 -0 0 0 0 0 0 0 0 -0 0 0 0 0 0 -0 -0 0 0 0 0 0 0
0 0 0 0 0 0 0 0 0 0 0 0 0 0 0 0 0 0 -0 -0 -0 -0 -0 -0 0 0 -0 0 0 0 0 -0 0 0 0 0 0 0 0 0 0 0 0 0 0
0 0 0 0 0 0 0 0 0 0 0 -0 0 -0 0 0 -0 -0 -0 -0 -0 -0 -0 -0 0 0 0 -0 0 0 0 0 0 -0 0 0 0 0 0 0 0 0 0 0 0
Wind_Speed_500mb
24 25 26 26 26 27 28 30 31 31 32 34 36 38 39 42 43 39 36 34 30 42 34 25 29 37 36 50 51 39 30 39 47 46 31 33 15 27 31 32 19 29 29 13 6
24 22 21 22 24 25 26 28 29 32 33 34 35 37 38 41 43 49 36 31 24 29 26 31 37 38 48 40 53 39 33 52 42 38 30 25 13 26 22 32 34 32 30 29 22
22 21 20 20 21 23 25 26 28 30 32 33 35 36 34 34 33 2 8 7 14 14 13 25 36 39 50 53 52 51 50 45 41 45 33 37 29 35 34 34 36 38 41 40 29
21 20 19 18 21 25 27 27 30 31 33 32 34 34 32 22 12 7 20 27 30 19 16 21 34 43 44 47 58 51 56 51 52 59 28 41 53 43 47 47 48 46 35 33 36
15 16 17 19 23 28 31 32 33 35 37 38 37 34 26 15 36 31 33 29 23 25 24 26 33 41 45 41 51 51 46 57 51 48 52 50 51 50 60 52 45 49 50 41 43
12 14 17 20 23 27 30 32 35 36 36 37 36 30 17 32 15 17 27 22 19 21 34 33 35 39 48 44 47 47 49 56 56 63 52 49 54 59 64 55 55 54 57 54 48
14 17 20 24 27 30 33 36 39 40 40 36 30 21 23 35 26 23 28 31 30 32 34 37 42 44 31 37 52 52 46 45 43 44 40 42 55 58 60 58 60 57 47 44 45
17 20 21 24 27 29 31 34 35 36 30 26 22 4 18 16 17 9 12 19 15 21 37 44 36 50 57 54 63 35 40 44 44 49 50 43 61 46 55 50 56 55 55 40 37
16 17 19 22 25 25 26 27 27 23 10 19 11 5 9 11 7 26 34 40 36 31 24 31 35 46 41 40 41 42 45 49 43 41 37 39 58 44 60 34 35 31 35 41 36
15 16 18 21 22 22 22 18 19 7 25 10 5 10 3 25 38 25 27 25 30 29 19 24 29 33 34 32 42 39 44 44 46 38 33 38 51 34 35 33 30 39 37 32 33
13 16 18 19 19 20 20 13 10 5 8 4 9 7 19 29 11 16 24 14 23 26 29 35 29 38 43 45 52 48 48 48 45 28 30 44 35 39 40 43 40 43 37 39 38
13 16 16 14 11 17 18 10 8 7 8 3 4 10 16 18 16 23 24 13 14 26 31 30 38 35 39 46 49 50 47 52 49 42 33 36 45 40 42 34 38 48 44 42 34
13 12 12 9 3 14 21 10 8 6 14 10 4 9 20 22 14 32 31 26 23 24 28 43 45 23 29 41 48 48 49 47 49 38 31 40 48 48 51 51 53 47 44 30 19
12 7 7 2 5 4 4 13 14 2 10 17 8 5 25 30 11 31 30 27 24 25 26 30 30 43 48 39 36 42 40 46 44 35 36 43 42 46 43 41 39 48 33 24 26
8 4 0 3 5 2 10 14 10 3 9 8 12 6 27 14 32 18 38 25 30 32 27 38 40 23 37 45 40 45 33 28 27 32 39 47 31 33 24 30 24 30 30 25 17
6 3 1 5 1 5 9 6 1 13 4 8 3 15 27 31 28 24 34 30 39 39 34 47 50 38 38 35 35 41 46 38 30 29 31 53 43 37 31 35 35 28 28 22 17
6 4 5 5 8 9 4 3 11 6 2 8 10 20 29 18 24 21 34 25 24 24 31 40 37 34 43 38 34 31 28 22 21 23 40 40 40 34 20 30 38 31 25 15 13
8 8 8 4 3 7 2 11 8 12 10 11 18 30 19 18 16 28 28 26 26 19 25 31 34 14 18 29 33 40 35 24 31 27 32 47 32 33 44 15 25 28 21 14 10
15 7 3 3 1 2 10 6 12 10 8 16 27 14 8 14 19 28 23 30 20 20 25 26 39 15 14 15 21 25 31 40 44 40 20 19 31 11 18 28 23 25 21 10 8
9 10 4 3 5 3 5 8 2 7 12 13 14 6 21 27 25 22 22 17 23 23 27 32 38 36 37 21 25 14 27 20 16 12 37 29 28 16 34 30 26 21 15 9 3
13 8 7 12 16 2 4 9 4 2 10 10 16 25 28 29 24 27 25 23 19 20 26 35 34 38 43 28 22 2 22 26 23 20 24 30 27 33 35 31 27 20 8 1 9
6 3 7 14 3 1 8 6 0 4 2 6 11 20 23 25 30 35 36 31 34 28 31 35 16 25 39 23 8 12 11 4 12 35 28 32 15 33 40 29 22 18 4 6 15
9 7 7 8 4 7 8 5 2 4 5 7 15 19 22 30 31 27 30 28 28 28 19 19 13 18 28 31 17 5 7 3 12 5 19 26 10 21 17 28 22 6 6 13 17
8 5 6 10 11 12 6 5 1 3 12 11 17 26 25 27 28 18 30 20 25 35 42 20 30 32 25 30 10 27 13 20 14 15 16 16 13 4 12 26 2 8 17 21 22
7 1 3 8 7 7 4 8 4 6 4 16 10 11 28 16 30 26 33 34 38 48 27 27 32 33 35 44 43 34 32 23 20 26 29 32 13 22 28 18 20 20 20 27 26
6 7 4 16 12 8 5 7 2 7 2 11 14 25 27 20 14 30 39 35 23 27 20 16 17 31 33 36 41 43 40 29 30 29 33 36 38 28 30 17 22 28 30 33 36
7 10 10 9 9 10 8 7 4 7 7 10 14 22 25 28 48 55 54 52 39 35 31 28 24 24 31 32 27 29 35 36 36 32 29 31 33 31 28 25 30 36 39 42 41
Wind_Direction_500mb
313 320 325 327 325 325 325 327 327 327 327 327 326 325 324 320 314 309 284 265 251 265 260 237 234 230 232 236 232 235 255 250 249 251 251 254 189 217 252 235 200 206 247 245 304
314 317 321 322 322 324 326 328 329 331 331 331 330 328 328 326 318 298 268 270 281 274 258 230 228 224 223 231 230 227 237 244 257 269 270 244 214 236 222 231 229 223 233 240 250
314 318 322 324 327 326 327 329 330 329 329 332 332 332 333 337 321 66 241 304 334 325 226 241 234 229 233 231 229 225 243 259 259 264 278 277 264 231 227 232 227 233 234 236 229
317 321 327 330 328 326 325 325 321 321 322 323 323 325 329 340 292 327 295 293 289 305 257 246 231 239 234 236 232 243 244 259 262 268 248 258 267 260 251 253 262 263 259 249 248
307 317 326 326 323 322 319 319 315 315 314 312 312 314 321 274 273 282 296 297 289 258 246 243 236 234 242 245 248 238 249 250 264 252 267 260 261 263 261 257 248 256 255 253 252
302 310 319 318 318 317 317 314 311 308 305 302 303 307 300 268 301 289 288 283 282 263 245 243 246 249 259 254 255 262 257 251 252 258 250 252 262 260 254 254 252 249 253 252 248
300 312 317 318 319 319 320 316 315 308 302 301 301 303 268 256 297 290 293 290 273 260 260 247 249 259 265 259 261 264 264 260 244 248 245 246 253 246 254 251 248 246 239 245 247
305 315 315 318 319 323 320 320 313 307 312 313 319 250 266 304 295 326 312 307 295 284 260 252 256 258 255 262 280 263 262 255 247 244 240 228 259 250 246 238 233 239 236 240 235
299 306 308 314 318 324 322 324 313 312 321 327 26 265 299 331 340 300 296 286 279 287 275 249 242 248 249 242 253 248 256 257 259 238 245 227 251 251 246 208 232 223 213 221 228
296 300 308 316 323 328 331 332 337 33 347 358 301 252 283 331 315 320 325 282 269 259 260 228 232 237 228 242 241 247 248 252 255 262 257 236 259 243 246 235 231 245 233 235 240
296 299 309 319 329 341 349 342 313 196 15 344 55 21 352 344 348 339 343 290 257 239 252 203 227 236 238 232 252 269 270 271 270 266 271 268 258 257 252 224 222 240 241 252 239
283 294 306 326 346 355 34 72 56 304 261 187 73 12 357 358 305 3 355 330 307 253 243 253 236 253 259 258 261 254 254 261 269 276 274 267 274 270 273 256 228 242 248 239 233
270 287 314 328 1 40 44 46 346 304 253 152 158 18 353 322 294 346 349 334 297 288 262 257 265 251 264 250 255 254 256 259 266 275 277 272 261 260 260 257 249 237 241 236 197
264 283 327 70 33 7 302 346 322 291 248 129 160 76 342 326 214 319 346 332 294 290 306 285 283 267 261 249 265 258 257 261 267 268 255 249 264 257 253 228 232 223 210 188 185
249 275 260 156 230 146 267 314 320 353 262 69 90 327 336 2 321 310 325 312 292 297 290 275 291 252 264 264 254 258 280 282 272 254 269 252 257 255 209 208 195 192 177 176 166
214 229 216 356 327 283 296 312 5 235 112 109 56 347 327 315 316 316 320 301 279 273 267 270 266 267 274 271 267 259 269 258 251 268 252 246 248 249 231 212 186 178 169 164 166
187 174 125 43 236 284 334 235 249 285 135 76 343 327 314 336 308 331 326 318 301 308 294 299 286 267 244 244 245 239 232 252 244 228 237 236 235 247 271 220 182 163 163 174 154
163 141 72 67 285 301 352 232 258 49 34 358 318 301 289 332 328 332 319 316 314 279 288 300 285 268 1 283 266 230 225 220 223 233 248 228 235 251 230 86 86 131 162 168 177
139 80 47 299 265 2 251 253 26 27 3 324 305 301 293 322 327 309 325 300 298 340 305 315 288 313 298 315 315 255 233 238 256 278 274 254 217 100 135 144 160 162 172 157 188
120 147 7 98 109 1 264 65 91 26 332 302 302 318 317 323 314 325 324 328 331 324 324 297 295 295 299 227 248 307 291 232 228 218 236 243 220 209 173 168 163 152 152 185 242
161 188 322 94 74 334 38 70 103 105 330 313 317 301 302 306 304 300 294 293 294 336 314 289 274 278 281 262 300 209 270 221 236 247 259 239 239 227 186 167 161 137 156 69 346
153 120 335 92 109 265 63 29 315 311 278 281 280 275 292 307 301 299 293 287 317 320 303 297 300 284 277 285 355 257 290 1 254 224 236 255 247 322 153 159 166 147 143 353 319
131 113 27 27 102 77 102 135 324 275 340 320 296 294 301 291 293 286 290 305 298 294 281 329 286 300 272 251 141 347 315 276 266 230 280 252 205 207 184 182 170 120 1 318 302
137 125 91 70 73 100 143 101 37 293 296 280 282 285 297 304 292 283 290 290 285 287 291 291 269 263 285 301 177 277 233 288 301 287 306 263 162 156 292 247 300 355 326 309 306
120 135 141 148 120 113 196 164 146 5 242 280 290 330 334 305 311 321 324 315 312 300 249 231 251 275 286 293 292 282 282 256 265 280 281 292 286 200 249 310 323 332 315 309 304
117 149 184 115 128 182 165 135 191 23 315 312 319 334 317 306 301 292 307 308 303 302 313 256 268 279 285 281 291 283 275 266 258 263 272 286 289 291 278 313 322 317 311 307 303
128 132 144 139 164 212 137 104 91 20 246 284 278 283 303 334 318 297 288 282 276 277 282 286 281 289 291 299 297 280 270 267 263 258 256 269 275 294 317 313 316 320 313 307 302
Wind_Speed_850mb
24 25 26 26 26 27 28 30 31 31 32 34 36 38 39 42 43 39 36 34 30 42 34 25 29 37 36 50 51 39 30 39 47 46 31 33 15 27 31 32 19 29 29 13 6
24 22 21 22 24 25 26 28 29 32 33 34 35 37 38 41 43 49 36 31 24 29 26 31 37 38 48 40 53 39 33 52 42 38 30 25 13 26 22 32 34 32 30 29 22
22 21 20 20 21 23 25 26 28 30 32 33 35 36 34 34 33 2 8 7 14 14 13 25 36 39 50 53 52 51 50 45 41 45 33 37 29 35 34 34 36 38 41 40 29
21 20 19 18 21 25 27 27 30 31 33 32 34 34 32 22 12 7 20 27 30 19 16 21 34 43 44 47 58 51 56 51 52 59 28 41 53 43 47 47 48 46 35 33 36
15 16 17 19 23 28 31 32 33 35 37 38 37 34 26 15 36 31 33 29 23 25 24 26 33 41 45 41 51 51 46 57 51 48 52 50 51 50 60 52 45 49 50 41 43
12 14 17 20 23 27 30 32 35 36 36 37 36 30 17 32 15 17 27 22 19 21 34 33 35 39 48 44 47 47 49 56 56 63 52 49 54 59 64 55 55 54 57 54 48
14 17 20 24 27 30 33 36 39 40 40 36 30 21 23 35 26 23 28 31 30 32 34 37 42 44 31 37 52 52 46 45 43 44 40 42 55 58 60 58 60 57 47 44 45
17 20 21 24 27 29 31 34 35 36 30 26 22 4 18 16 17 9 12 19 15 21 37 44 36 50 57 54 63 35 40 44 44 49 50 43 61 46 55 50 56 55 55 40 37
16 17 19 22 25 25 26 27 27 23 10 19 11 5 9 11 7 26 34 40 36 31 24 31 35 46 41 40 41 42 45 49 43 41 37 39 58 44 60 34 35 31 35 41 36
15 16 18 21 22 22 22 18 19 7 25 10 5 10 3 25 38 25 27 25 30 29 19 24 29 33 34 32 42 39 44 44 46 38 33 38 51 34 35 33 30 39 37 32 33
13 16 18 19 19 20 20 13 10 5 8 4 9 7 19 29 11 16 24 14 23 26 29 35 29 38 43 45 52 48 48 48 45 28 30 44 35 39 40 43 40 43 37 39 38
13 16 16 14 11 17 18 10 8 7 8 3 4 10 16 18 16 23 24 13 14 26 31 30 38 35 39 46 49 50 47 52 49 42 33 36 45 40 42 34 38 48 44 42 34
13 12 12 9 3 14 21 10 8 6 14 10 4 9 20 22 14 32 31 26 23 24 28 43 45 23 29 41 48 48 49 47 49 38 31 40 48 48 51 51 53 47 44 30 19
12 7 7 2 5 4 4 13 14 2 10 17 8 5 25 30 11 31 30 27 24 25 26 30 30 43 48 39 36 42 40 46 44 35 36 43 42 46 43 41 39 48 33 24 26
8 4 0 3 5 2 10 14 10 3 9 8 12 6 27 14 32 18 38 25 30 32 27 38 40 23 37 45 40 45 33 28 27 32 39 47 31 33 24 30 24 30 30 25 17
6 3 1 5 1 5 9 6 1 13 4 8 3 15 27 31 28 24 34 30 39 39 34 47 50 38 38 35 35 41 46 38 30 29 31 53 43 37 31 35 35 28 28 22 17
6 4 5 5 8 9 4 3 11 6 2 8 10 20 29 18 24 21 34 25 24 24 31 40 37 34 43 38 34 31 28 22 21 23 40 40 40 34 20 30 38 31 25 15 13
8 8 8 4 3 7 2 11 8 12 10 11 18 30 19 18 16 28 28 26 26 19 25 31 34 14 18 29 33 40 35 24 31 27 32 47 32 33 44 15 25 28 21 14 10
15 7 3 3 1 2 10 6 12 10 8 16 27 14 8 14 19 28 23 30 20 20 25 26 39 15 14 15 21 25 31 40 44 40 20 19 31 11 18 28 23 25 21 10 8
9 10 4 3 5 3 5 8 2 7 12 13 14 6 21 27 25 22 22 17 23 23 27 32 38 36 37 21 25 14 27 20 16 12 37 29 28 16 34 30 26 21 15 9 3
13 8 7 12 16 2 4 9 4 2 10 10 16 25 28 29 24 27 25 23 19 20 26 35 34 38 43 28 22 2 22 26 23 20 24 30 27 33 35 31 27 20 8 1 9
6 3 7 14 3 1 8 6 0 4 2 6 11 20 23 25 30 35 36 31 34 28 31 35 16 25 39 23 8 12 11 4 12 35 28 32 15 33 40 29 22 18 4 6 15
9 7 7 8 4 7 8 5 2 4 5 7 15 19 22 30 31 27 30 28 28 28 19 19 13 18 28 31 17 5 7 3 12 5 19 26 10 21 17 28 22 6 6 13 17
8 5 6 10 11 12 6 5 1 3 12 11 17 26 25 27 28 18 30 20 25 35 42 20 30 32 25 30 10 27 13 20 14 15 16 16 13 4 12 26 2 8 17 21 22
7 1 3 8 7 7 4 8 4 6 4 16 10 11 28 16 30 26 33 34 38 48 27 27 32 33 35 44 43 34 32 23 20 26 29 32 13 22 28 18 20 20 20 27 26
6 7 4 16 12 8 5 7 2 7 2 11 14 25 27 20 14 30 39 35 23 27 20 16 17 31 33 36 41 43 40 29 30 29 33 36 38 28 30 17 22 28 30 33 36
7 10 10 9 9 10 8 7 4 7 7 10 14 22 25 28 48 55 54 52 39 35 31 28 24 24 31 32 27 29 35 36 36 32 29 31 33 31 28 25 30 36 39 42 41
Wind_Direction_850mb
313 320 325 327 325 325 325 327 327 327 327 327 326 325 324 320 314 309 284 265 251 265 260 237 234 230 232 236 232 235 255 250 249 251 251 254 189 217 252 235 200 206 247 245 304
314 317 321 322 322 324 326 328 329 331 331 331 330 328 328 326 318 298 268 270 281 274 258 230 228 224 223 231 230 227 237 244 257 269 270 244 214 236 222 231 229 223 233 240 250
314 318 322 324 327 326 327 329 330 329 329 332 332 332 333 337 321 66 241 304 334 325 226 241 234 229 233 231 229 225 243 259 259 264 278 277 264 231 227 232 227 233 234 236 229
317 321 327 330 328 326 325 325 321 321 322 323 323 325 329 340 292 327 295 293 289 305 257 246 231 239 234 236 232 243 244 259 262 268 248 258 267 260 251 253 262 263 259 249 248
307 317 326 326 323 322 319 319 315 315 314 312 312 314 321 274 273 282 296 297 289 258 246 243 236 234 242 245 248 238 249 250 264 252 267 260 261 263 261 257 248 256 255 253 252
302 310 319 318 318 317 317 314 311 308 305 302 303 307 300 268 301 289 288 283 282 263 245 243 246 249 259 254 255 262 257 251 252 258 250 252 262 260 254 254 252 249 253 252 248
300 312 317 318 319 319 320 316 315 308 302 301 301 303 268 256 297 290 293 290 273 260 260 247 249 259 265 259 261 264 264 260 244 248 245 246 253 246 254 251 248 246 239 245 247
305 315 315 318 319 323 320 320 313 307 312 313 319 250 266 304 295 326 312 307 295 284 260 252 256 258 255 262 280 263 262 255 247 244 240 228 259 250 246 238 233 239 236 240 235
299 306 308 314 318 324 322 324 313 312 321 327 26 265 299 331 340 300 296 286 279 287 275 249 242 248 249 242 253 248 256 257 259 238 245 227 251 251 246 208 232 223 213 221 228
296 300 308 316 323 328 331 332 337 33 347 358 301 252 283 331 315 320 325 282 269 259 260 228 232 237 228 242 241 247 248 252 255 262 257 236 259 243 246 235 231 245 233 235 240
296 299 309 319 329 341 349 342 313 196 15 344 55 21 352 344 348 339 343 290 257 239 252 203 227 236 238 232 252 269 270 271 270 266 271 268 258 257 252 224 222 240 241 252 239
283 294 306 326 346 355 34 72 56 304 261 187 73 12 357 358 305 3 355 330 307 253 243 253 236 253 259 258 261 254 254 261 269 276 274 267 274 270 273 256 228 242 248 239 233
270 287 314 328 1 40 44 46 346 304 253 152 158 18 353 322 294 346 349 334 297 288 262 257 265 251 264 250 255 254 256 259 266 275 277 272 261 260 260 257 249 237 241 236 197
264 283 327 70 33 7 302 346 322 291 248 129 160 76 342 326 214 319 346 332 294 290 306 285 283 267 261 249 265 258 257 261 267 268 255 249 264 257 253 228 232 223 210 188 185
249 275 260 156 230 146 267 314 320 353 262 69 90 327 336 2 321 310 325 312 292 297 290 275 291 252 264 264 254 258 280 282 272 254 269 252 257 255 209 208 195 192 177 176 166
214 229 216 356 327 283 296 312 5 235 112 109 56 347 327 315 316 316 320 301 279 273 267 270 266 267 274 271 267 259 269 258 251 268 252 246 248 249 231 212 186 178 169 164 166
187 174 125 43 236 284 334 235 249 285 135 76 343 327 314 336 308 331 326 318 301 308 294 299 286 267 244 244 245 239 232 252 244 228 237 236 235 247 271 220 182 163 163 174 154
163 141 72 67 285 301 352 232 258 49 34 358 318 301 289 332 328 332 319 316 314 279 288 300 285 268 1 283 266 230 225 220 223 233 248 228 235 251 230 86 86 131 162 168 177
139 80 47 299 265 2 251 253 26 27 3 324 305 301 293 322 327 309 325 300 298 340 305 315 288 313 298 315 315 255 233 238 256 278 274 254 217 100 135 144 160 162 172 157 188
120 147 7 98 109 1 264 65 91 26 332 302 302 318 317 323 314 325 324 328 331 324 324 297 295 295 299 227 248 307 291 232 228 218 236 243 220 209 173 168 163 152 152 185 242
161 188 322 94 74 334 38 70 103 105 330 313 317 301 302 306 304 300 294 293 294 336 314 289 274 278 281 262 300 209 270 221 236 247 259 239 239 227 186 167 161 137 156 69 346
153 120 335 92 109 265 63 29 315 311 278 281 280 275 292 307 301 299 293 287 317 320 303 297 300 284 277 285 355 257 290 1 254 224 236 255 247 322 153 159 166 147 143 353 319
131 113 27 27 102 77 102 135 324 275 340 320 296 294 301 291 293 286 290 305 298 294 281 329 286 300 272 251 141 347 315 276 266 230 280 252 205 207 184 182 170 120 1 318 302
137 125 91 70 73 100 143 101 37 293 296 280 282 285 297 304 292 283 290 290 285 287 291 291 269 263 285 301 177 277 233 288 301 287 306 263 162 156 292 247 300 355 326 309 306
120 135 141 148 120 113 196 164 146 5 242 280 290 330 334 305 311 321 324 315 312 300 249 231 251 275 286 293 292 282 282 256 265 280 281 292 286 200 249 310 323 332 315 309 304
117 149 184 115 128 182 165 135 191 23 315 312 319 334 317 306 301 292 307 308 303 302 313 256 268 279 285 281 291 283 275 266 258 263 272 286 289 291 278 313 322 317 311 307 303
128 132 144 139 164 212 137 104 91 20 246 284 278 283 303 334 318 297 288 282 276 277 282 286 281 289 291 299 297 280 270 267 263 258 256 269 275 294 317 313 316 320 313 307 302